Presure
200 135 148 118 154 222 126 225 255 85 86 307 366 333 335 326 345 311 119 84 96 98 113 104 117 107 120 119 110 108 116 122 118 125 122 131 130 124 119 117 126 123 89 102 100 101 117 99 115
122 232 123 131 227 180 247 308 242 361 315 101 373 294 270 302 265 366 219 193 128 92 101 140 121 165 116 124 124 124 116 122 127 115 111 126 125 114 125 113 98 123 105 110 104 98 104 101 96
116 125 152 149 245 187 260 213 342 238 360 348 244 259 258 89 211 336 208 195 179 188 122 110 192 119 122 127 132 122 126 116 119 139 117 115 110 125 137 139 136 125 121 131 128 122 123 103 91
138 234 201 235 255 398 372 369 337 336 333 337 350 225 202 221 216 195 225 192 183 163 126 202 203 237 279 103 122 132 127 124 135 133 119 119 127 106 80 97 135 91 142 139 151 91 78 122 137
199 212 247 201 247 343 324 337 324 318 327 303 350 209 185 96 104 219 235 133 201 175 117 201 98 91 232 155 134 161 91 139 125 140 139 122 125 127 96 115 124 129 134 142 136 151 149 146 123
190 236 244 90 90 203 268 287 186 312 332 249 314 95 100 155 108 213 209 233 180 108 110 145 159 125 226 247 129 108 125 131 135 125 127 98 131 118 128 120 123 122 134 132 130 138 113 139 99
216 228 229 220 308 298 261 256 273 300 208 210 205 200 221 247 223 244 226 187 199 175 80 168 117 115 125 130 232 171 148 251 125 141 132 140 142 142 120 124 138 133 143 136 141 91 140 146 140
239 223 225 231 301 296 271 264 251 220 159 211 201 131 152 220 235 221 228 222 179 168 193 190 188 190 204 135 162 115 118 127 137 133 111 133 137 145 120 124 130 133 141 128 124 142 132 109 99
233 195 230 270 301 296 293 309 244 247 193 182 194 174 137 203 222 213 190 198 196 179 183 186 195 161 199 184 159 116 134 119 136 142 117 131 131 135 150 151 147 140 136 135 132 138 152 148 150
224 219 222 287 174 269 192 298 224 249 224 179 188 209 191 192 224 227 211 207 183 183 161 188 181 174 187 179 183 164 185 176 103 137 125 102 133 136 121 146 149 122 123 129 140 112 129 111 144
217 222 234 295 313 275 260 279 281 238 220 222 213 212 235 258 215 213 198 192 190 195 184 177 206 177 183 201 176 150 205 133 224 212 149 150 143 125 139 136 124 122 136 141 143 138 97 143 140
199 223 88 316 320 262 262 243 244 217 206 199 219 245 289 201 113 209 207 120 212 199 192 182 188 180 223 197 188 158 163 130 180 124 121 126 124 130 134 135 122 141 139 144 103 109 141 119 140
216 213 223 272 286 270 270 219 234 230 232 217 225 233 213 198 156 211 199 201 209 197 216 194 190 194 194 157 190 223 222 228 121 164 118 123 123 133 140 132 135 133 187 138 132 130 136 141 119
213 207 229 234 278 272 237 228 250 258 246 220 226 225 211 200 190 197 185 204 199 200 199 195 192 189 198 194 192 195 195 157 207 126 112 122 149 134 135 137 123 128 128 137 129 142 142 140 140
217 203 220 216 245 231 221 202 231 206 223 222 256 226 259 182 201 201 192 192 212 209 195 190 195 201 201 195 195 198 194 199 210 176 246 202 128 142 111 126 160 147 142 146 141 131 145 174 138
194 199 209 232 227 234 226 219 210 223 208 256 257 220 253 245 201 193 178 186 184 199 192 193 193 222 220 200 204 220 206 205 127 127 203 211 204 127 196 126 129 182 123 134 124 139 148 145 117
207 201 198 216 201 221 221 204 208 224 231 232 245 208 224 244 246 194 196 194 216 202 200 191 195 230 226 218 207 212 204 159 127 171 199 159 131 156 162 164 212 163 125 131 196 173 125 127 195
195 208 198 204 230 222 234 214 211 201 206 252 220 242 222 233 235 235 231 242 218 243 194 192 196 196 193 204 199 214 215 221 203 210 127 195 217 198 175 188 154 167 188 182 124 119 193 205 130
206 198 197 197 213 233 252 252 206 199 216 253 243 235 219 222 232 225 223 226 226 213 193 195 250 235 213 205 215 225 206 212 204 197 194 187 218 200 197 199 204 194 192 195 201 200 199 203 185
178 187 198 192 208 213 204 254 231 210 220 240 236 225 237 228 218 220 217 219 224 222 234 214 211 202 155 127 205 211 217 200 204 209 209 174 126 193 190 192 199 175 137 202 201 192 194 157 193
203 207 181 187 192 206 239 206 244 243 239 224 228 225 221 239 235 205 201 223 229 212 212 217 213 217 212 171 206 209 205 210 191 197 212 153 184 206 125 206 201 195 208 201 190 185 158 178 201
194 211 192 188 191 207 206 234 206 241 229 246 237 243 230 233 220 212 199 200 215 223 222 212 204 206 188 195 203 207 219 215 219 204 214 210 203 205 200 193 195 196 139 183 139 197 212 210 203
185 204 212 191 193 192 204 247 230 213 242 232 245 226 220 219 220 220 212 208 146 196 196 208 219 213 202 198 195 195 197 212 221 224 223 213 217 230 127 160 227 225 222 217 205 197 201 256 229
196 206 211 193 185 194 209 211 255 215 218 256 224 225 244 224 228 219 212 227 220 216 226 218 205 204 212 210 205 202 203 204 205 206 207 201 203 204 204 207 207 205 197 202 227 250 233 231 233
200 187 201 197 194 194 194 212 214 265 228 223 239 230 233 236 234 217 207 210 208 213 222 209 221 205 205 163 203 219 205 204 204 204 205 204 204 210 213 224 234 227 226 233 228 241 221 215 205
184 200 178 209 192 183 214 190 213 237 264 225 238 237 225 233 223 221 214 212 216 216 208 207 222 211 203 204 206 211 203 212 220 229 230 215 215 211 223 224 220 220 212 213 222 211 223 207 206
187 197 217 212 187 185 192 192 222 215 275 199 198 211 245 217 233 240 227 222 219 213 217 217 210 217 232 229 227 231 219 218 257 220 219 201 214 210 204 208 222 219 223 212 209 213 204 201 200
183 175 196 179 190 195 193 194 188 224 210 277 204 207 206 248 226 231 231 236 231 227 223 222 228 217 220 224 225 222 223 215 216 196 206 186 195 204 208 222 223 224 216 222 212 204 194 197 199
176 191 180 199 205 175 188 186 188 239 220 219 260 237 211 207 242 231 225 226 220 218 224 217 211 183 223 225 228 214 221 203 183 195 184 194 201 206 221 205 217 217 215 207 201 199 196 195 192
176 196 186 201 212 194 177 192 206 193 205 203 216 256 199 213 210 230 246 231 219 221 221 223 223 225 230 224 220 199 201 206 189 218 211 208 210 204 211 208 207 211 210 211 198 196 192 193 192
Wind_Speed
69 81 50 35 75 74 57 61 72 27 29 39 36 32 34 35 40 30 32 28 34 39 34 52 67 58 71 70 57 55 64 69 62 66 58 66 66 63 59 56 61 54 40 42 43 40 50 38 49
63 74 51 72 77 58 73 49 44 30 37 42 27 27 21 22 17 44 75 76 52 32 52 68 38 78 67 78 76 76 62 70 70 54 50 64 64 54 63 39 41 55 49 49 45 40 44 44 41
36 53 80 60 71 47 30 30 35 26 18 16 32 22 27 31 42 39 75 79 84 91 64 57 70 66 73 74 79 62 74 56 58 78 56 51 39 63 75 74 71 53 48 64 54 58 54 47 39
62 70 79 71 62 23 22 20 14 11 11 9 17 22 43 42 43 49 65 74 82 85 69 57 69 50 51 40 71 79 70 63 78 75 56 56 64 29 30 38 63 39 73 67 78 40 26 52 57
81 67 65 67 56 18 18 11 8 6 4 5 19 42 46 29 31 46 51 50 53 46 63 42 48 39 55 69 51 70 33 83 68 80 80 61 60 64 38 50 51 56 62 69 67 78 74 73 55
65 62 57 18 28 17 29 18 15 8 2 18 15 13 28 32 36 39 51 45 61 55 49 48 85 74 45 47 73 50 68 76 77 64 65 38 68 53 61 50 50 44 59 59 52 61 45 69 51
68 60 61 41 29 15 22 21 17 3 13 27 25 22 27 28 32 45 54 66 54 60 25 47 41 54 71 64 58 70 76 55 65 80 69 75 80 82 51 53 72 59 72 62 63 39 56 72 74
46 60 56 49 27 18 11 7 15 31 18 29 29 39 43 33 47 57 70 60 74 78 66 64 68 68 56 70 69 47 54 62 72 72 40 68 72 83 40 60 60 62 70 60 60 66 52 58 52
43 41 48 39 25 14 10 5 22 24 30 35 37 41 29 49 60 67 70 69 79 75 67 68 62 68 59 55 67 33 34 47 71 77 54 63 64 67 82 83 79 70 59 57 64 63 80 70 82
43 49 43 38 19 6 13 6 12 29 38 37 44 46 44 49 63 74 71 73 71 73 72 77 82 75 76 69 48 54 52 48 29 70 55 39 65 65 59 75 77 56 52 55 63 58 70 63 78
45 43 42 35 16 7 7 11 15 30 39 40 45 44 46 65 69 74 66 64 68 80 79 77 62 71 69 52 64 68 49 61 43 45 66 81 73 57 69 67 55 54 62 63 70 64 52 75 67
48 40 25 28 11 6 5 32 34 34 40 39 39 24 26 52 37 70 69 40 77 82 81 77 80 72 48 59 72 62 66 59 51 55 55 56 56 64 71 68 56 72 65 74 52 57 72 68 73
39 39 38 32 17 6 4 17 36 39 36 34 36 31 54 53 44 66 57 57 81 71 67 66 63 60 62 53 49 48 45 52 55 59 45 52 53 68 75 63 65 63 71 66 64 68 70 75 69
39 37 41 34 19 6 15 16 19 12 26 25 38 37 60 58 48 56 44 62 65 65 61 60 59 59 59 58 58 57 58 62 58 56 41 54 63 69 69 69 57 61 65 72 66 73 78 78 81
34 34 38 34 14 14 14 10 5 2 21 26 25 33 26 34 60 61 54 49 70 69 53 49 56 62 59 62 60 61 64 61 58 60 56 59 65 76 43 61 57 80 77 81 74 72 83 83 82
37 34 36 32 23 9 11 4 1 9 13 19 21 25 29 44 65 51 31 41 41 55 49 50 53 63 67 66 61 58 62 61 56 57 62 58 56 63 59 64 67 73 64 72 64 74 76 80 67
32 33 32 33 28 22 12 10 10 12 18 17 20 24 28 32 38 52 56 54 70 59 59 55 59 49 58 63 63 62 59 56 52 61 64 63 65 64 69 68 68 68 67 73 78 79 70 73 81
32 33 31 32 30 15 8 8 6 10 16 18 7 19 23 31 32 33 44 39 52 46 54 58 57 56 53 52 54 59 59 60 63 64 54 68 50 63 67 70 71 75 79 77 66 62 81 86 78
30 31 28 29 31 26 12 13 16 21 22 21 17 18 22 24 29 29 35 39 39 50 53 52 31 42 52 53 49 52 57 62 66 67 68 67 54 67 71 71 68 75 79 82 80 82 83 84 89
36 38 31 26 29 28 26 17 15 25 22 16 11 22 25 23 27 30 36 34 28 35 33 46 46 49 41 41 49 51 50 57 62 64 68 62 48 69 71 74 77 71 63 80 80 81 82 83 87
25 29 27 25 27 28 26 29 20 14 18 15 16 21 22 25 26 31 34 34 34 35 36 37 40 42 49 45 48 48 50 50 56 55 60 55 66 75 57 80 77 78 79 79 79 84 79 88 96
24 32 30 34 27 31 25 22 27 19 20 20 23 22 24 26 29 37 38 36 33 32 39 44 42 43 43 45 49 49 50 50 52 58 56 63 69 72 73 74 76 76 69 78 74 89 88 87 88
29 25 37 33 30 23 28 25 20 22 19 24 17 22 23 25 32 36 43 42 29 35 34 39 39 45 48 49 49 49 48 47 45 47 48 55 57 57 60 63 69 73 73 76 80 85 88 64 78
23 26 36 31 29 26 28 26 23 23 21 22 20 24 25 27 34 35 35 34 44 46 44 47 43 45 44 47 49 49 49 50 50 51 54 58 61 66 67 70 71 74 79 80 78 53 75 71 68
31 34 27 32 38 31 24 27 22 27 22 20 20 19 23 34 38 36 38 38 38 39 40 41 47 48 49 45 47 49 48 50 51 53 55 58 64 69 67 68 66 68 72 72 68 63 70 69 69
29 23 25 40 35 26 36 21 24 26 30 24 24 22 27 31 34 39 41 41 43 43 41 41 46 49 48 48 48 47 47 51 49 41 37 50 56 62 60 62 62 66 69 68 66 68 70 69 70
32 32 44 41 36 35 32 28 34 25 27 26 28 26 28 24 34 41 44 44 45 43 43 44 45 47 45 46 46 42 41 43 31 40 31 42 56 59 62 62 62 64 62 63 63 65 66 69 73
39 42 31 28 34 38 37 32 23 33 25 26 29 28 28 30 29 31 36 39 39 40 41 42 38 41 43 41 40 36 34 43 37 46 31 53 59 62 64 64 62 62 63 65 63 64 68 71 75
37 39 36 30 46 27 35 22 17 40 28 26 28 29 27 29 28 33 35 34 35 35 38 33 16 53 45 40 36 33 32 39 51 48 52 57 61 63 62 61 63 63 64 63 65 67 70 73 77
41 53 41 34 40 33 31 37 39 33 32 22 28 28 33 31 31 30 35 35 33 36 37 36 38 43 42 37 25 35 38 40 47 41 55 57 59 59 60 60 60 63 65 68 69 71 74 77 81
Wind_Direction
294 285 281 295 289 291 289 291 291 273 269 265 241 259 248 245 249 228 257 269 300 282 251 261 258 253 255 254 252 255 256 255 254 255 255 255 255 255 256 258 255 255 263 255 260 263 267 277 274
291 292 301 293 294 283 294 294 279 256 250 264 257 237 238 204 222 232 173 198 228 266 263 253 265 242 245 244 246 249 251 253 251 255 258 253 254 259 256 259 265 259 264 256 262 273 266 269 276
294 302 291 288 299 295 278 282 281 280 276 244 239 243 215 263 240 208 187 203 234 233 257 268 256 248 250 253 245 251 248 255 255 248 256 261 264 258 258 259 261 261 256 266 266 262 261 267 281
297 302 294 301 309 324 316 301 296 309 298 287 233 196 233 222 226 235 198 205 217 240 247 251 255 272 265 253 251 254 255 257 249 251 258 261 259 237 275 268 266 265 267 271 268 278 280 263 276
293 299 304 301 309 346 6 31 21 343 306 177 250 221 244 260 254 215 206 243 206 236 258 258 253 262 269 251 252 250 251 249 258 250 252 259 261 259 253 259 268 270 269 272 274 271 272 277 273
304 307 312 271 273 311 334 359 287 8 283 257 163 272 269 250 259 205 207 181 215 263 259 260 242 250 263 268 249 253 251 252 251 252 256 246 255 262 264 266 265 268 271 269 274 272 282 277 275
305 306 309 316 340 339 321 328 22 55 162 142 186 204 235 229 211 185 174 207 184 219 281 258 256 251 252 252 258 249 250 254 252 250 256 255 255 257 263 266 266 272 271 278 279 286 281 279 278
315 307 311 317 345 339 267 330 94 140 212 175 183 256 247 204 175 175 169 168 213 227 206 228 238 246 254 243 239 256 258 252 253 253 254 258 259 256 265 264 273 275 274 275 277 279 265 266 279
323 310 321 345 354 350 333 230 144 143 185 218 208 245 243 207 183 183 201 198 193 215 216 232 233 248 247 250 244 251 251 262 251 251 258 258 261 264 260 260 265 272 276 275 273 277 278 279 279
317 312 324 352 296 21 274 140 172 147 175 214 208 213 225 229 193 184 194 193 213 217 238 224 234 245 243 248 245 246 242 249 244 255 259 272 264 267 268 267 266 269 269 267 274 262 274 272 277
315 321 334 353 354 132 337 165 174 164 175 193 199 205 209 190 194 194 208 217 222 211 213 236 227 246 249 241 246 246 239 257 239 243 254 253 259 268 271 269 267 270 274 277 279 274 279 277 273
310 332 258 356 350 100 72 160 152 191 216 235 211 204 205 206 234 207 212 250 201 208 216 233 233 244 234 245 254 255 246 256 247 255 258 260 261 262 263 265 269 270 275 275 276 275 276 270 276
324 327 341 4 26 156 125 176 174 182 188 207 207 203 196 209 226 208 221 221 206 225 219 234 243 250 252 253 252 243 245 238 259 254 263 265 269 267 265 270 273 272 271 273 270 271 274 276 274
324 330 352 352 20 97 66 171 197 220 219 233 209 203 198 206 224 220 225 217 225 226 230 237 241 246 249 252 256 259 258 253 256 262 271 265 264 267 269 269 273 271 271 271 275 276 278 276 274
340 328 349 348 30 44 51 201 83 214 324 253 218 215 211 240 219 224 228 231 222 228 235 242 245 246 245 247 252 253 257 257 253 259 251 261 264 262 282 273 270 269 270 273 275 275 279 280 278
317 329 344 358 354 69 62 35 332 338 299 253 220 213 201 213 220 232 236 240 241 237 240 243 248 246 244 245 246 239 247 250 258 260 262 259 259 268 260 276 276 270 280 276 281 279 280 277 281
336 331 335 345 344 342 343 346 7 322 283 274 253 236 211 206 215 228 234 240 231 235 238 243 247 238 239 243 246 248 250 259 264 257 261 264 267 266 266 270 265 273 278 278 273 276 283 283 281
319 329 326 338 348 350 240 320 236 277 282 258 240 233 223 213 216 223 228 220 229 224 233 237 241 243 244 243 246 241 240 236 248 248 267 261 261 259 265 268 275 273 273 274 280 283 278 282 283
333 320 325 334 341 339 334 241 241 262 281 274 252 256 219 225 215 216 221 230 223 228 233 238 235 228 238 242 246 241 246 238 240 251 257 263 259 264 269 267 265 266 270 273 276 276 279 282 277
308 308 323 331 339 339 330 321 224 274 269 265 237 231 226 224 216 224 233 233 230 228 224 234 228 235 254 268 243 244 248 247 248 251 249 260 269 264 266 267 269 272 274 271 277 277 280 283 282
335 332 305 322 332 333 328 324 312 281 261 268 249 243 235 208 217 231 246 240 228 239 238 235 240 236 240 257 252 247 250 253 256 253 254 261 263 263 272 266 269 269 274 275 276 278 283 283 284
313 334 312 309 320 324 327 315 316 295 290 254 245 238 232 207 215 220 244 250 247 238 234 239 249 248 253 253 253 258 263 257 253 252 257 255 258 260 264 266 268 271 280 275 283 280 281 282 283
301 313 330 302 311 321 323 309 305 313 278 269 255 244 235 231 222 220 230 237 253 255 253 251 246 245 249 252 256 258 258 263 261 263 264 264 267 267 278 275 271 272 276 274 275 278 281 289 286
323 318 326 300 300 310 321 315 300 307 301 263 263 247 239 232 220 229 237 240 239 245 244 246 251 254 254 249 251 257 260 263 264 268 266 265 266 265 264 266 268 272 273 276 279 287 281 288 290
305 295 315 302 294 303 316 310 322 289 299 295 259 246 244 232 220 225 245 242 246 248 244 251 244 252 256 262 261 262 265 267 269 270 272 271 273 272 274 277 278 278 276 279 284 286 288 290 289
277 299 282 314 292 292 305 289 321 310 285 292 283 258 256 248 243 237 238 248 250 247 253 250 247 248 257 262 264 268 269 271 268 274 279 277 277 278 278 278 278 279 283 286 287 290 292 294 295
273 295 307 313 286 293 304 317 317 311 293 288 291 292 269 258 254 243 242 251 253 261 260 255 258 258 258 260 265 267 270 270 257 272 257 276 280 277 278 280 281 282 283 286 288 289 291 293 294
278 281 282 271 287 289 292 294 305 311 308 300 291 291 292 267 269 262 260 257 254 253 256 265 273 275 268 267 269 267 271 276 272 276 263 275 279 280 282 281 283 284 288 290 291 290 289 294 297
261 274 270 299 299 274 285 289 296 320 310 315 295 285 286 284 266 266 269 266 264 268 266 267 238 269 271 274 278 277 273 272 284 283 275 276 278 279 277 287 288 289 290 290 291 292 294 295 297
260 280 276 299 290 273 274 286 297 300 301 298 306 290 281 276 274 271 259 262 268 268 270 270 268 270 275 275 282 265 264 265 262 266 266 274 276 281 284 288 289 288 290 291 292 294 295 297 296